GFSGL_250_spd_231.txt.gz
Wind_Speed
81 81 84 85 82 80 80 80 83 82 80 78 77 75 73 72 72 72 67 65 65 66 66 63 62 60 57 53 51 49 49 47 46 47 47 49 51 71 67 65 57 51 47
70 71 75 81 76 78 79 77 74 76 80 84 83 78 75 72 72 69 65 65 62 63 65 64 62 60 57 53 51 48 48 48 48 49 49 50 51 61 77 70 67 61 50
63 62 69 77 75 74 79 79 81 84 78 77 78 82 82 77 74 74 70 68 67 70 67 66 62 60 60 57 54 50 48 48 49 49 51 51 54 54 68 77 69 64 54
80 80 76 69 74 77 76 78 77 79 81 71 69 76 80 81 81 77 73 76 76 72 70 69 67 63 63 60 56 52 50 48 48 49 48 51 55 56 56 71 79 70 60
89 87 87 89 88 86 85 83 76 71 83 76 76 74 76 76 77 80 84 84 82 80 75 73 70 66 65 63 58 54 53 50 49 48 45 49 53 55 55 63 76 74 69
96 93 96 91 85 80 81 87 85 80 65 72 78 76 78 80 80 80 78 77 77 76 75 73 73 69 68 67 62 55 51 48 50 47 44 45 50 55 56 57 64 79 83
101 100 99 97 75 71 82 79 85 89 83 85 82 73 62 63 68 70 76 78 79 76 73 70 69 64 55 49 44 43 44 45 47 46 46 41 47 53 57 54 60 68 68
100 100 101 98 95 99 101 98 83 79 80 81 75 83 71 63 65 69 52 67 68 67 66 63 58 52 48 45 42 45 44 44 42 45 44 41 46 49 55 54 53 62 66
91 93 94 95 93 92 93 88 93 90 90 91 86 87 88 82 84 83 75 75 70 68 67 65 63 57 55 52 49 48 47 43 39 43 43 43 44 48 53 50 49 60 59
92 93 92 89 90 90 92 90 95 103 104 99 98 98 97 92 80 80 81 79 72 70 71 75 72 67 65 59 56 51 50 45 38 43 42 43 43 48 52 48 47 53 56
82 85 83 87 89 90 91 89 94 94 106 106 107 102 102 105 88 81 79 73 73 73 76 78 77 76 75 66 63 53 52 48 38 41 41 42 43 50 52 49 47 53 53
64 69 69 68 71 80 89 93 92 95 98 105 110 104 104 101 89 84 79 75 72 71 68 74 77 80 77 70 66 56 54 49 42 39 41 42 43 49 52 49 47 57 57
53 56 58 53 54 61 68 79 84 92 94 97 98 100 100 93 87 85 81 76 75 73 71 76 75 72 76 69 66 59 54 52 46 42 41 45 44 46 52 50 51 61 62
44 46 48 48 51 57 63 67 70 76 82 85 89 89 87 82 80 79 77 78 75 72 72 80 76 76 75 71 66 62 59 55 50 45 43 46 44 47 54 52 52 57 66
32 36 39 42 46 49 52 55 58 62 66 70 74 75 73 73 77 75 71 74 77 81 79 77 82 79 77 72 65 68 62 59 54 51 46 47 46 48 54 53 52 57 64
27 31 33 35 38 42 45 46 48 52 54 54 59 61 64 64 66 69 73 77 76 81 81 75 75 73 75 70 66 69 64 61 58 55 51 50 50 50 56 54 54 61 64
17 20 22 24 26 29 31 35 38 41 44 47 50 51 52 56 59 63 67 73 78 78 76 73 76 75 72 65 65 68 66 65 64 57 55 53 53 51 56 57 58 65 67
14 15 16 18 21 23 24 25 29 34 37 41 41 42 46 50 52 53 57 60 59 61 65 70 71 70 73 73 69 70 68 69 66 62 60 57 56 55 59 60 63 72 73
17 16 18 19 19 19 20 19 22 25 27 31 34 36 37 39 42 44 45 43 49 52 55 58 61 64 68 71 73 74 70 69 68 65 63 59 59 57 61 64 67 76 80
17 18 19 18 16 16 16 15 18 20 21 22 24 25 28 32 33 34 34 39 43 46 46 48 50 54 59 63 66 68 69 67 67 65 62 61 60 59 62 67 69 79 80
15 15 15 15 14 13 14 14 15 16 17 18 19 19 20 20 23 26 31 34 37 38 40 44 49 54 56 59 60 63 66 64 64 63 61 61 60 58 63 69 72 82 79
18 16 15 15 13 14 12 13 13 12 11 12 14 14 13 15 17 19 22 24 28 32 37 39 42 45 48 52 58 62 61 62 63 60 60 60 60 61 67 71 75 82 82
17 14 13 12 12 12 12 11 10 7 8 9 10 12 13 14 14 15 18 23 26 29 31 34 37 40 41 46 52 54 50 59 60 58 59 59 59 64 71 72 78 84 84
14 10 7 7 8 9 8 6 7 7 7 6 6 7 9 12 14 15 18 22 25 27 30 33 35 36 38 41 42 45 52 55 55 56 57 59 62 69 74 72 81 86 86
7 2 0 1 2 3 2 4 7 9 9 9 9 9 11 11 12 14 18 18 19 22 24 26 29 33 34 36 40 45 48 51 54 56 57 60 67 72 74 75 84 86 85
7 6 6 6 7 9 10 9 8 8 5 4 3 3 6 9 11 11 12 12 14 16 19 22 26 30 35 37 39 43 47 54 55 55 58 63 69 72 70 76 85 84 83

GFSGL_250_spd_234.txt.gz
Wind_Speed
84 84 83 83 81 81 81 78 77 78 79 80 78 79 80 78 77 74 74 70 66 64 63 62 58 57 53 50 46 45 46 49 47 43 42 39 37 35 38 41 53 58 54
80 82 83 80 79 82 78 68 67 61 64 64 68 70 70 69 69 66 66 66 68 67 63 62 62 57 55 51 47 47 44 45 46 46 45 43 39 36 37 44 47 62 58
74 73 73 71 68 62 65 67 66 58 60 67 68 68 68 65 64 66 67 67 64 64 67 65 63 62 63 58 52 50 48 46 48 48 48 45 40 38 37 43 49 63 60
77 76 76 73 70 68 57 54 54 64 61 62 66 70 68 69 70 68 68 67 65 66 67 68 69 67 62 64 61 60 56 51 49 47 49 45 42 38 39 42 52 52 70
77 78 79 79 77 78 77 77 74 65 60 64 65 66 63 68 72 74 64 66 69 69 73 73 71 69 72 73 74 71 65 58 55 54 51 50 45 40 38 40 49 54 55
87 87 86 86 86 85 82 80 78 83 82 86 80 76 83 79 78 69 70 66 68 67 69 69 69 70 69 69 69 67 63 61 57 56 55 52 48 41 37 39 43 51 53
94 96 96 94 94 95 92 89 81 86 90 89 86 82 85 87 80 78 83 81 75 75 76 76 71 68 70 71 70 64 58 55 50 49 44 43 42 39 35 35 39 47 51
105 104 104 105 104 102 102 100 97 98 96 97 94 87 76 80 75 81 82 84 84 79 78 74 70 70 67 66 65 60 53 46 42 42 40 37 39 38 34 34 36 41 46
112 111 109 107 108 108 107 107 106 102 97 97 85 60 76 81 82 87 89 82 85 78 78 75 65 64 63 54 52 51 46 47 40 40 37 35 35 38 35 31 32 37 40
98 98 98 97 96 99 99 100 100 99 96 99 101 98 101 102 97 101 96 89 86 83 80 73 69 64 68 59 55 53 51 53 46 41 37 38 35 38 37 30 29 33 36
83 86 87 88 89 89 90 93 94 95 96 97 103 102 106 113 111 106 104 101 93 86 87 83 79 70 72 66 63 59 56 54 53 50 43 40 37 36 38 31 27 30 34
62 68 73 74 75 78 81 88 91 91 92 96 96 97 106 113 115 115 111 103 99 90 87 92 90 81 69 72 67 66 63 62 57 55 48 44 41 36 38 33 28 30 36
50 55 59 62 64 64 66 70 76 81 88 90 91 91 93 98 100 104 102 100 98 95 93 91 79 76 74 68 75 78 66 66 64 64 56 48 44 38 38 35 27 31 37
40 41 44 46 52 55 55 60 62 65 73 78 85 90 90 92 92 94 98 99 101 99 100 96 88 85 77 64 63 77 70 62 61 65 59 51 46 41 39 38 30 34 40
31 31 32 35 37 40 43 48 53 59 64 68 73 78 81 85 91 96 95 95 96 99 104 97 86 77 71 69 75 72 70 72 70 66 60 55 51 42 42 39 34 37 44
23 24 25 25 28 30 34 38 43 49 52 57 61 65 68 71 78 84 86 86 86 87 83 83 80 70 70 71 75 76 75 73 72 62 61 58 55 48 45 41 39 40 47
18 19 21 22 24 25 27 29 31 36 41 45 48 52 56 62 65 69 73 74 72 76 74 73 73 68 66 71 76 75 77 76 76 65 60 60 57 51 48 46 43 43 51
14 15 17 19 21 24 26 28 30 30 32 34 36 39 43 48 53 57 61 63 59 58 60 64 69 71 71 73 77 77 77 74 73 69 63 64 61 56 53 52 46 48 55
14 13 13 14 16 19 21 23 26 27 30 33 33 35 38 39 41 46 50 48 53 54 58 62 65 69 72 75 78 75 74 70 66 67 68 65 65 59 57 56 50 51 58
15 14 13 13 13 15 16 18 20 21 22 22 23 26 28 29 32 35 36 40 44 48 51 52 55 60 62 66 70 69 66 64 62 58 63 70 66 62 60 59 54 54 62
23 18 15 13 12 12 11 12 14 14 13 14 14 14 16 19 22 25 27 30 34 39 42 43 44 48 51 53 55 57 58 59 60 61 63 64 63 63 61 60 57 59 66
21 19 15 12 10 9 8 8 8 9 7 8 9 11 13 13 15 17 19 21 25 30 33 37 40 43 47 51 52 54 56 58 58 63 65 63 64 64 63 61 58 62 68
18 15 12 8 4 3 3 4 5 6 6 7 7 8 9 9 9 11 12 13 16 20 23 27 31 35 39 42 46 48 50 51 56 62 66 65 63 63 62 62 60 64 70
8 5 4 3 2 1 1 2 5 8 6 6 6 7 9 12 13 13 15 16 17 18 20 22 25 28 32 37 40 43 45 47 51 53 57 62 62 62 61 62 60 66 74
9 8 8 7 5 4 3 1 3 4 4 4 5 7 9 10 11 12 15 17 17 19 21 23 25 26 29 33 39 43 46 47 47 49 55 59 59 59 61 62 63 70 75
15 14 14 12 12 10 8 6 3 3 3 4 4 4 5 6 7 10 13 14 14 14 17 20 23 27 30 31 32 37 41 44 46 48 51 54 55 58 60 61 67 74 77

GFSGL_250_spd_237.txt.gz
Wind_Speed
77 79 82 84 83 82 81 81 81 80 81 80 76 75 74 73 72 69 65 61 62 59 57 54 51 50 53 54 53 51 51 49 49 43 38 34 31 31 31 31 33 36 38
76 76 75 76 78 79 81 81 81 80 80 77 78 75 73 68 61 62 59 57 58 56 55 52 52 50 51 53 55 53 51 50 45 42 39 36 36 33 32 32 34 36 37
75 74 74 74 74 73 73 73 74 75 75 75 74 74 71 63 62 56 56 55 53 57 52 51 54 55 56 54 51 51 54 52 50 50 49 40 40 40 35 34 34 36 38
70 73 74 72 73 74 75 72 69 64 55 64 63 64 66 66 58 57 52 42 48 56 57 56 56 61 60 55 54 55 56 57 56 53 51 54 51 45 40 38 36 35 38
70 70 71 71 70 69 70 73 74 73 70 62 59 57 55 55 42 69 35 32 39 50 52 62 62 61 58 56 56 55 56 55 55 57 57 60 53 47 46 43 39 35 37
80 81 81 81 80 78 77 75 73 73 75 73 63 62 59 55 58 56 44 24 28 68 80 70 66 68 67 67 65 57 57 54 56 56 47 46 45 44 45 44 40 36 38
90 92 92 92 92 91 89 86 84 82 79 75 75 75 74 71 68 64 56 49 59 72 83 76 77 78 70 63 62 63 59 56 61 55 54 55 47 42 38 40 38 36 34
95 96 98 99 100 99 97 95 94 92 89 87 83 82 80 76 73 78 80 82 81 88 95 98 90 87 84 78 70 71 67 66 59 59 53 46 43 41 38 37 34 33 29
102 104 103 103 104 104 104 102 101 99 98 95 92 89 86 82 82 92 91 83 83 89 92 94 98 94 84 79 73 66 66 66 56 45 38 37 39 40 38 36 32 28 25
108 107 109 112 112 113 113 112 109 106 106 104 101 99 93 90 91 90 96 93 97 98 91 92 87 80 82 78 70 67 62 57 46 43 44 39 37 38 35 34 32 27 22
89 88 87 90 95 101 106 109 112 112 113 112 111 109 104 101 97 99 102 90 94 95 92 83 83 79 80 80 76 76 66 59 56 46 42 43 41 43 38 35 32 28 21
67 68 68 69 73 80 84 86 88 91 94 96 104 108 109 107 106 104 107 98 104 94 90 86 84 83 87 87 86 79 70 64 57 50 47 51 46 44 42 35 34 30 21
56 56 56 56 59 64 68 70 70 71 76 81 86 94 95 98 101 105 103 109 98 101 103 104 94 96 98 98 88 80 79 75 71 55 53 55 51 51 48 41 36 32 22
44 44 45 45 46 50 54 59 59 59 65 69 70 80 88 90 91 96 99 99 110 113 111 106 107 104 100 93 96 92 86 80 77 74 65 64 59 58 51 43 38 34 26
33 33 34 36 39 40 42 44 46 50 55 59 63 68 73 81 87 90 92 98 110 111 111 110 110 108 103 102 96 96 92 90 75 75 68 61 53 60 56 47 42 35 33
28 29 28 29 29 30 34 37 38 39 42 47 53 56 62 70 76 80 86 91 97 99 99 100 103 99 101 103 99 99 93 79 74 70 62 59 52 61 58 47 43 40 37
24 27 28 27 27 25 24 26 29 32 35 37 41 46 51 57 62 67 72 76 80 85 85 88 89 89 89 93 90 92 87 79 73 70 65 58 53 63 59 50 48 44 41
15 16 18 23 25 25 25 24 23 24 27 30 34 37 41 44 49 53 58 61 61 60 65 72 80 85 88 90 90 87 87 79 70 69 71 64 60 65 57 53 54 50 45
16 16 17 17 19 22 23 25 24 25 24 23 26 30 33 37 42 46 48 49 52 54 59 63 67 69 74 81 84 80 78 80 76 68 64 68 67 71 62 58 57 55 49
20 21 21 19 18 18 19 21 22 23 24 25 25 25 26 30 34 36 38 42 46 49 52 54 57 60 62 66 71 74 73 73 72 72 68 67 63 65 59 57 58 59 55
23 23 24 20 17 16 16 17 18 20 20 20 21 22 23 24 26 28 29 33 39 42 43 45 48 51 54 57 59 61 66 68 68 69 70 64 66 64 61 63 61 63 60
20 21 21 15 12 11 10 11 12 14 14 16 16 16 17 17 20 21 22 24 27 30 33 36 39 42 45 49 52 53 53 59 64 63 63 62 65 65 64 65 65 67 64
12 8 5 4 4 3 2 4 7 9 10 10 11 12 12 13 13 14 15 17 20 22 24 27 31 34 37 40 44 47 48 51 56 59 58 61 65 65 64 67 69 70 65
9 8 7 7 5 4 2 1 3 6 7 6 7 7 9 10 10 11 11 13 14 15 17 21 25 28 29 32 36 40 47 48 50 56 59 57 59 63 65 68 71 72 69
16 14 13 12 11 9 8 6 4 2 2 4 5 5 7 8 8 9 10 12 14 15 17 19 21 23 26 30 33 36 38 41 44 46 51 58 64 64 65 67 67 70 69
18 17 16 14 12 11 9 7 4 2 3 4 5 6 7 7 7 8 10 10 10 13 19 21 22 23 24 27 30 33 36 37 39 44 49 53 61 66 66 63 65 70 70

GFSGL_250_spd_240.txt.gz
Wind_Speed
67 69 70 71 72 72 73 76 79 81 83 83 82 79 75 73 68 65 63 62 61 58 58 58 52 48 49 49 49 51 47 46 43 43 42 41 41 36 34 32 29 28 29
71 70 70 71 72 73 71 71 72 72 75 76 76 77 76 73 71 67 65 65 61 60 60 56 52 49 48 49 44 44 43 43 42 42 39 39 41 42 41 35 31 28 29
73 74 73 73 74 75 73 72 71 70 70 71 69 69 69 67 65 65 64 62 57 54 48 48 40 43 46 47 42 41 42 44 40 39 39 42 45 49 50 47 43 33 34
77 77 76 74 74 74 74 74 73 72 72 71 68 67 64 62 58 57 54 53 46 41 33 36 41 50 53 45 44 40 39 40 38 38 39 43 51 52 49 48 49 49 44
81 79 75 70 67 65 65 67 69 71 72 72 70 66 63 56 52 52 49 50 39 38 24 45 50 57 56 56 57 58 47 40 40 42 46 52 50 56 47 40 35 37 36
82 80 78 75 73 71 71 69 67 67 67 66 64 65 66 68 60 54 52 47 40 39 30 36 65 75 64 60 58 63 61 55 54 42 46 50 64 60 59 52 52 44 33
81 81 80 80 82 82 81 80 79 77 75 74 72 69 69 67 63 65 67 58 44 53 50 55 68 68 84 77 80 71 62 59 56 56 59 57 59 62 60 52 45 36 31
85 85 87 88 88 89 91 91 91 88 86 85 83 81 78 75 70 65 70 66 58 56 58 57 72 65 77 71 72 69 71 66 66 70 69 65 68 62 48 43 36 33 28
84 88 91 94 95 96 98 100 102 102 100 95 90 89 87 85 81 78 72 70 69 68 65 58 67 65 58 67 67 75 74 77 76 70 74 70 59 51 34 35 29 30 28
89 89 91 92 94 96 97 99 101 102 102 100 97 94 91 90 89 84 82 80 79 75 72 68 74 73 79 75 79 83 89 86 79 77 75 69 54 51 41 40 31 26 27
92 92 93 95 96 97 99 103 106 108 108 107 105 102 99 96 95 93 88 85 85 83 80 77 75 78 80 89 89 91 88 88 86 87 80 64 58 53 42 38 33 28 28
81 80 80 80 79 78 79 80 84 89 92 97 102 105 105 104 102 99 95 93 89 87 84 82 77 82 96 98 97 95 94 91 92 81 71 69 65 56 49 39 39 36 31
61 61 61 61 60 60 60 62 65 68 71 75 77 83 89 92 101 108 106 102 95 92 88 85 80 75 83 87 97 84 86 82 77 74 71 73 66 58 56 44 42 40 32
48 47 46 45 45 46 46 48 51 56 59 60 62 65 69 73 77 88 102 110 109 103 98 94 92 95 84 93 90 87 87 89 86 79 73 77 68 68 58 48 49 47 37
36 36 36 35 36 37 38 40 42 43 45 48 52 54 57 59 65 70 79 91 100 106 107 105 102 102 101 96 95 104 100 95 93 87 79 75 77 75 62 54 45 46 42
33 31 32 34 34 34 33 32 34 37 37 38 40 44 50 54 55 61 69 76 83 91 97 99 103 105 103 107 104 109 100 97 94 90 83 83 77 77 62 49 46 46 42
27 28 28 29 29 29 28 28 27 29 32 33 32 34 39 44 48 54 59 66 68 72 80 85 93 99 101 107 107 110 104 104 96 92 87 87 84 80 70 52 42 43 45
26 26 26 26 27 28 28 26 26 26 24 26 30 29 30 34 41 46 51 55 56 59 61 72 82 89 98 102 107 105 106 106 97 96 93 87 85 77 72 60 44 44 48
29 27 26 26 25 25 27 26 25 25 24 21 22 24 26 28 32 37 41 44 49 51 55 63 71 78 86 93 98 101 104 104 103 100 93 89 85 83 72 66 52 49 52
32 30 28 27 26 24 26 25 26 25 24 22 19 17 20 24 26 29 33 37 41 45 50 57 63 69 74 80 85 92 96 96 103 107 102 95 88 81 68 60 54 53 53
27 25 26 27 25 24 23 23 22 22 21 19 18 17 16 16 20 24 28 32 35 39 42 46 50 53 59 66 70 76 83 88 92 89 94 90 82 78 73 60 56 63 54
15 17 20 21 19 16 15 14 14 14 14 14 15 15 15 15 17 19 21 24 29 33 35 38 42 46 50 54 58 62 66 70 74 75 76 74 76 83 80 67 63 66 61
10 6 4 3 2 2 2 3 5 7 8 10 11 12 12 14 17 18 19 21 23 26 29 32 37 40 42 45 48 52 54 57 62 66 67 70 71 74 76 73 65 68 65
16 14 12 10 8 6 5 3 1 3 4 4 6 7 8 11 12 14 16 18 18 19 20 23 27 31 35 39 43 45 47 49 51 54 58 62 66 69 74 76 72 70 70
12 12 11 12 10 8 7 6 4 2 1 3 5 6 7 8 9 11 12 14 15 16 17 20 24 27 31 34 37 38 40 44 47 51 54 56 60 65 71 72 69 73 76
5 7 7 6 7 9 8 8 6 5 5 4 5 6 8 9 10 11 13 16 16 18 20 21 22 23 24 26 30 33 36 40 42 44 47 53 57 59 63 66 66 74 79

GFSGL_250_spd_246.txt.gz
Wind_Speed
64 64 62 60 62 62 64 69 66 65 61 62 52 49 44 30 55 73 78 71 74 74 61 64 65 68 70 70 68 63 53 45 36 21 22 25 23 23 25 24 18 18 21
70 69 67 66 67 67 67 69 68 64 59 57 60 60 52 58 57 50 57 72 73 69 69 69 66 61 62 62 59 56 45 35 18 26 20 30 35 25 25 17 22 27 40
74 75 71 67 68 67 68 68 67 65 61 58 54 55 59 61 42 22 55 64 75 75 68 65 66 55 63 58 53 50 41 26 20 25 34 28 29 26 28 27 37 42 56
78 76 76 73 70 69 66 63 59 65 64 60 56 53 66 73 63 55 70 54 53 45 59 64 71 63 64 51 44 39 36 33 34 27 34 33 28 35 42 44 47 51 48
82 79 78 76 74 70 67 63 56 60 67 65 60 58 60 80 71 69 68 55 35 35 48 56 60 60 48 42 30 36 38 37 37 38 35 37 33 35 36 38 36 42 52
89 86 85 82 76 73 70 68 62 58 58 66 70 66 63 65 79 72 79 71 55 43 54 44 53 53 53 41 39 39 42 44 45 45 43 34 39 37 36 38 44 46 48
96 94 91 89 84 78 75 73 71 67 62 60 62 66 68 68 71 79 88 81 76 74 63 59 47 62 67 52 41 45 52 54 50 44 46 40 38 40 42 46 47 46 45
102 99 96 92 88 86 84 79 74 71 69 67 66 65 61 61 67 72 89 90 83 83 79 74 77 78 67 58 58 57 61 59 60 54 47 48 42 45 44 47 48 48 48
99 98 98 96 93 90 89 87 83 78 76 74 73 72 71 66 65 65 73 82 90 87 91 93 93 85 76 70 72 71 69 69 65 58 53 55 51 50 51 43 44 41 49
81 88 92 94 93 93 93 89 87 84 81 81 81 79 77 75 74 71 73 75 82 83 82 91 89 88 82 81 75 78 72 73 74 68 59 57 58 47 43 44 45 45 49
69 74 79 83 85 85 85 87 85 85 84 84 85 84 84 84 82 81 77 76 81 86 87 86 88 87 83 81 82 80 74 76 79 74 57 59 54 51 44 43 44 47 51
62 64 66 68 70 71 74 76 77 78 78 80 81 82 83 85 85 86 85 82 82 81 87 91 92 91 88 85 80 75 76 83 71 64 65 66 64 59 52 46 46 52 52
57 58 58 59 61 64 66 67 70 71 73 74 74 75 77 80 80 81 84 85 86 81 84 87 91 96 96 91 86 82 77 74 71 61 63 69 70 64 55 51 55 54 51
53 53 54 55 57 58 59 59 59 59 60 59 59 61 62 64 64 63 66 67 69 73 74 80 89 93 96 95 92 89 81 78 72 67 66 69 69 62 54 54 53 52 48
43 44 45 46 47 49 49 49 49 51 51 51 51 53 55 57 57 56 56 57 57 59 62 67 76 85 93 95 92 90 88 82 79 69 67 69 70 67 64 60 58 54 49
33 34 37 39 41 42 43 44 43 44 44 43 43 42 44 47 50 51 50 51 52 51 52 59 67 73 84 96 98 94 87 84 83 75 73 72 72 68 63 61 68 62 55
26 31 35 38 40 39 38 39 39 34 36 36 35 35 37 40 40 44 45 47 47 45 46 50 58 67 76 85 95 94 90 85 86 80 77 73 69 59 63 72 70 60 58
26 33 39 42 42 40 38 36 37 36 34 34 33 35 35 34 35 39 40 39 42 40 40 44 54 62 68 76 86 93 90 91 85 81 78 77 67 69 69 76 77 65 65
28 32 35 32 30 30 33 34 33 30 31 30 32 34 33 31 31 33 35 36 33 35 37 40 47 54 61 68 77 87 93 92 88 83 84 82 74 85 89 84 84 81 73
19 27 29 24 22 19 19 19 21 22 25 28 30 31 28 26 25 27 31 30 26 29 32 35 40 48 55 61 70 78 89 94 91 88 90 92 89 88 93 99 92 83 76
19 15 19 19 15 12 9 10 13 17 19 19 17 17 18 18 18 22 24 24 22 24 26 29 33 41 49 55 62 67 81 92 95 95 94 96 100 101 99 102 100 93 85
14 10 10 12 13 11 8 5 4 6 7 8 9 10 11 12 14 16 17 20 19 20 22 24 27 34 41 46 53 59 65 79 90 96 96 95 98 98 99 98 94 86 79
8 6 8 9 9 7 6 5 5 5 7 8 9 10 10 9 10 10 12 13 16 17 18 20 23 28 34 40 45 51 59 68 80 93 99 97 98 97 95 94 91 88 81
11 7 5 7 8 7 9 12 13 11 11 11 10 12 13 12 11 11 10 10 13 14 14 16 19 23 28 33 38 45 53 60 69 82 94 99 100 98 100 96 91 85 84
14 8 6 9 8 8 10 14 15 16 16 15 14 14 14 15 14 12 9 8 9 11 12 13 16 20 25 29 34 39 47 53 58 65 77 86 90 97 96 91 91 90 88
15 11 6 5 5 3 10 14 18 18 19 21 18 15 15 14 15 14 12 11 10 9 9 9 11 15 20 26 30 35 39 44 50 55 59 68 74 84 94 94 94 94 91